GSAT-8 (GAGAN/PRN 127)

Last updated on Sat Sep 05 2026 00:03:32 GMT+0000 (Coordinated Universal Time)

1 37605U 11022A 26247.60685338 .00000077 00000+0 00000+0 0 9999 2 37605 2.3292 80.7702 0005962 156.7233 19.7995 1.00272456 54011
UTC large
Height (km)
Speed (km/s)
/
Latitude / Longitude
Inclination (degrees)
Orbital Period (minutes)
Azimuth
Elevation
Range (km)
Doppler Factor

Next 0 passes for location: London (51.5072 / 0.1276)

No passes found over London.
GSAT-8 (GAGAN/PRN 127)